Back to catalog

STARLINK-32776

AliveCommunicationsVLEO
NORAD 63032·PAYLOAD·🇺🇸 United States

Launched Feb 18, 2025 from Cape Canaveral Space Force Station

Loading…

Next Passes (next 24 hours)

TLE

FreshSource: CelesTrak SupGP

Epoch: Sep 14, 2026, 20:56 UTC

1 63032C 25034D   26257.87270833 -.00038600  00000+0 -11407-2 0  2578
2 63032  53.1578  95.9679 0001116  91.7464 130.7508 15.34403040    19

Track STARLINK-32776 in real time with AllMySat

Download on the App Store